TimeEDT,TemperatureF,Dew PointF,Humidity,Sea Level PressureIn,VisibilityMPH,Wind Direction,Wind SpeedMPH,Gust SpeedMPH,PrecipitationIn,Events,Conditions,WindDirDegrees,DateUTC
12:53 AM,52.0,52.0,100,30.17,0.5,South,8.1,-,N/A,Fog,Fog,190,2013-05-08 04:53:00
1:53 AM,51.1,51.1,100,30.16,0.5,South,6.9,-,N/A,Fog,Fog,190,2013-05-08 05:53:00
2:53 AM,51.1,51.1,100,30.16,0.5,South,5.8,-,N/A,,Mist,180,2013-05-08 06:53:00
3:39 AM,50.0,50.0,100,30.16,0.5,SSW,5.8,-,N/A,Fog,Fog,200,2013-05-08 07:39:00
3:51 AM,50.0,50.0,100,30.16,0.5,South,6.9,-,N/A,,Mist,190,2013-05-08 07:51:00
3:53 AM,50.0,50.0,100,30.16,0.5,South,8.1,-,N/A,,Mist,190,2013-05-08 07:53:00
4:10 AM,50.0,50.0,100,30.17,0.5,South,5.8,-,N/A,,Mist,180,2013-05-08 08:10:00
4:28 AM,50.0,50.0,100,30.17,0.5,South,4.6,-,N/A,Fog,Fog,190,2013-05-08 08:28:00
4:40 AM,50.0,50.0,100,30.18,0.5,South,3.5,-,N/A,Fog,Fog,190,2013-05-08 08:40:00
4:53 AM,50.0,50.0,100,30.18,0.5,SSW,4.6,-,N/A,Fog,Fog,210,2013-05-08 08:53:00
5:09 AM,50.0,50.0,100,30.19,0.5,SSW,3.5,-,N/A,Fog,Fog,200,2013-05-08 09:09:00
5:53 AM,50.0,50.0,100,30.20,0.5,SSW,3.5,-,N/A,Fog,Fog,210,2013-05-08 09:53:00
6:29 AM,50.0,50.0,100,30.21,0.2,South,5.8,-,N/A,Fog,Fog,190,2013-05-08 10:29:00
6:46 AM,50.0,50.0,100,30.22,0.2,Calm,Calm,-,N/A,Fog,Fog,0,2013-05-08 10:46:00
6:53 AM,50.0,50.0,100,30.22,0.2,South,3.5,-,N/A,Fog,Fog,180,2013-05-08 10:53:00
7:24 AM,50.0,50.0,100,30.23,0.5,SE,4.6,-,N/A,Fog,Fog,140,2013-05-08 11:24:00
7:49 AM,50.0,50.0,100,30.23,0.5,SSE,4.6,-,N/A,Fog,Fog,150,2013-05-08 11:49:00
7:53 AM,50.0,50.0,100,30.23,0.5,SE,4.6,-,N/A,Fog,Fog,140,2013-05-08 11:53:00
8:23 AM,51.8,51.8,100,30.24,1.5,SSE,4.6,-,N/A,,Overcast,160,2013-05-08 12:23:00
8:35 AM,51.8,51.8,100,30.24,6.0,SSE,3.5,-,N/A,,Overcast,150,2013-05-08 12:35:00
8:48 AM,53.6,51.8,94,30.24,10.0,SSE,3.5,-,N/A,,Mostly Cloudy,160,2013-05-08 12:48:00
8:53 AM,54.0,52.0,93,30.25,10.0,Variable,4.6,-,N/A,,Scattered Clouds,0,2013-05-08 12:53:00
9:53 AM,62.1,54.0,75,30.25,10.0,SSE,8.1,-,N/A,,Partly Cloudy,160,2013-05-08 13:53:00
10:53 AM,68.0,55.0,63,30.24,10.0,South,11.5,-,N/A,,Partly Cloudy,170,2013-05-08 14:53:00
11:53 AM,71.1,53.1,53,30.23,10.0,SSW,11.5,-,N/A,,Scattered Clouds,200,2013-05-08 15:53:00
12:53 PM,73.0,52.0,48,30.22,10.0,South,13.8,20.7,N/A,,Scattered Clouds,170,2013-05-08 16:53:00
1:53 PM,73.0,52.0,48,30.21,10.0,South,17.3,25.3,N/A,,Partly Cloudy,180,2013-05-08 17:53:00
2:53 PM,73.0,54.0,51,30.21,10.0,South,15.0,23.0,N/A,,Partly Cloudy,190,2013-05-08 18:53:00
3:53 PM,71.1,54.0,55,30.19,10.0,South,15.0,23.0,N/A,,Scattered Clouds,170,2013-05-08 19:53:00
4:53 PM,70.0,55.0,59,30.19,10.0,South,16.1,23.0,N/A,,Scattered Clouds,180,2013-05-08 20:53:00
5:53 PM,68.0,55.9,65,30.19,10.0,South,15.0,19.6,N/A,,Scattered Clouds,170,2013-05-08 21:53:00
6:53 PM,64.9,55.0,70,30.18,10.0,SSW,13.8,-,N/A,,Mostly Cloudy,200,2013-05-08 22:53:00
7:53 PM,63.0,55.9,78,30.19,10.0,South,8.1,-,N/A,,Mostly Cloudy,190,2013-05-08 23:53:00
8:26 PM,60.8,57.2,88,30.19,10.0,South,8.1,-,N/A,,Mostly Cloudy,180,2013-05-09 00:26:00
8:53 PM,61.0,57.0,87,30.19,10.0,South,6.9,-,N/A,,Overcast,190,2013-05-09 00:53:00
9:53 PM,60.1,57.0,90,30.18,10.0,South,6.9,-,N/A,,Mostly Cloudy,170,2013-05-09 01:53:00
10:24 PM,59.0,55.4,88,30.17,10.0,SSE,9.2,-,N/A,,Overcast,160,2013-05-09 02:24:00
10:53 PM,57.9,55.9,93,30.17,10.0,South,5.8,-,N/A,,Mostly Cloudy,180,2013-05-09 02:53:00
11:12 PM,57.2,55.4,94,30.17,10.0,South,6.9,-,N/A,,Mostly Cloudy,170,2013-05-09 03:12:00
11:45 PM,57.2,55.4,94,30.17,10.0,SSE,9.2,-,N/A,,Mostly Cloudy,160,2013-05-09 03:45:00
11:53 PM,57.0,55.9,96,30.16,10.0,South,6.9,-,N/A,,Mostly Cloudy,170,2013-05-09 03:53:00